EA3BIN-13 Weather Reports


Display with metric or nautical units.
time (UTC)temp
F
wind
direction
speed
MPH
gust
MPH
rain 1hr
in
rain 24hr
in
rain mn
in
humidity
%
barometer
mb
20260506023918 49 0.0 0.0 0.00 0.00 0.00 10 1012.3
20260506022919 50 0.0 0.0 0.00 0.00 0.00 10 1012.3
20260506021919 50 0.0 0.0 0.00 0.00 0.00 10 1012.3
20260506020924 50 0.0 0.0 0.00 0.00 0.00 10 1012.2
20260506015919 51 0.0 0.0 0.00 0.00 0.00 10 1012.1
20260506014919 51 0.0 0.0 0.00 0.00 0.00 10 1012.0
20260506013919 51 0.0 0.0 0.00 0.00 0.00 10 1011.9
20260506012919 50 0.0 0.0 0.00 0.00 0.00 10 1011.9
20260506011924 50 0.0 0.0 0.00 0.00 0.00 10 1012.1
20260506010924 49 0.0 0.0 0.00 0.00 0.00 10 1012.2
20260506005919 48 0.0 0.0 0.00 0.00 0.00 10 1012.5
20260506004919 48 0.0 0.0 0.00 0.00 0.00 10 1012.6
20260506003919 48 0.0 0.0 0.00 0.00 0.00 10 1012.7
20260506002924 48 0.0 0.0 0.00 0.00 0.00 10 1012.8
20260506001924 48 0.0 0.0 0.00 0.00 0.00 10 1012.8
20260506000919 48 0.0 0.0 0.00 0.00 0.00 10 1012.7
20260505235924 48 0.0 0.0 0.00 0.00 0.00 10 1012.8
20260505234919 49 0.0 0.0 0.00 0.00 0.00 10 1012.6
20260505233919 49 0.0 0.0 0.00 0.00 0.00 10 1012.7
20260505232919 49 0.0 0.0 0.00 0.00 0.00 10 1012.7
20260505231919 49 0.0 0.0 0.00 0.00 0.00 10 1012.6
20260505230919 49 0.0 0.0 0.00 0.00 0.00 10 1012.6
20260505225919 49 0.0 0.0 0.00 0.00 0.00 10 1012.6
20260505224919 50 0.0 0.0 0.00 0.00 0.00 10 1012.3
20260505223919 51 0.0 0.0 0.00 0.00 0.00 10 1012.4
20260505222919 50 0.0 0.0 0.00 0.00 0.00 10 1012.7
20260505221919 50 0.0 0.0 0.00 0.00 0.00 10 1012.7
20260505220929 51 0.0 0.0 0.00 0.00 0.00 10 1012.8
20260505215919 51 0.0 0.0 0.00 0.00 0.00 10 1013.0
20260505214919 50 0.0 0.0 0.00 0.00 0.00 10 1013.1
20260505213919 51 0.0 0.0 0.00 0.00 0.00 10 1013.1
20260505212919 51 0.0 0.0 0.00 0.00 0.00 10 1012.8
20260505211919 51 0.0 0.0 0.00 0.00 0.00 10 1012.9
20260505210919 51 0.0 0.0 0.00 0.00 0.00 10 1012.9
20260505205919 51 0.0 0.0 0.00 0.00 0.00 10 1012.7
20260505204919 51 0.0 0.0 0.00 0.00 0.00 10 1012.8
20260505203919 51 0.0 0.0 0.00 0.00 0.00 10 1012.7
20260505202919 51 0.0 0.0 0.00 0.00 0.00 10 1012.4
20260505201920 51 0.0 0.0 0.00 0.00 0.00 10 1012.3
20260505200919 51 0.0 0.0 0.00 0.00 0.00 10 1012.2
20260505195919 51 0.0 0.0 0.00 0.00 0.00 10 1012.1
20260505194919 51 0.0 0.0 0.00 0.00 0.00 10 1011.9
20260505193919 51 0.0 0.0 0.00 0.00 0.00 10 1011.7
20260505192919 52 0.0 0.0 0.00 0.00 0.00 10 1011.6
20260505191919 52 0.0 0.0 0.00 0.00 0.00 10 1011.5
20260505190919 52 0.0 0.0 0.00 0.00 0.00 10 1011.3
20260505185919 53 0.0 0.0 0.00 0.00 0.00 10 1011.4
20260505184919 53 0.0 0.0 0.00 0.00 0.00 10 1011.5
20260505183919 53 0.0 0.0 0.00 0.00 0.00 10 1011.5
20260505182919 54 0.0 0.0 0.00 0.00 0.00 10 1011.2
20260505181919 55 0.0 0.0 0.00 0.00 0.00 10 1011.1
20260505180919 53 0.0 0.0 0.00 0.00 0.00 10 1011.2
20260505175924 53 0.0 0.0 0.00 0.00 0.00 10 1011.3
20260505174924 53 0.0 0.0 0.00 0.00 0.00 10 1011.3
20260505173919 52 0.0 0.0 0.00 0.00 0.00 10 1011.4
20260505172919 52 0.0 0.0 0.00 0.00 0.00 10 1011.4
20260505171919 52 0.0 0.0 0.00 0.00 0.00 10 1011.4
20260505170919 52 0.0 0.0 0.00 0.00 0.00 10 1011.5
20260505165919 52 0.0 0.0 0.00 0.00 0.00 10 1011.4
20260505164919 52 0.0 0.0 0.00 0.00 0.00 10 1011.4
20260505163919 52 0.0 0.0 0.00 0.00 0.00 10 1011.5
20260505162919 53 0.0 0.0 0.00 0.00 0.00 10 1011.8
20260505161919 53 0.0 0.0 0.00 0.00 0.00 10 1011.7
20260505160919 53 0.0 0.0 0.00 0.00 0.00 10 1011.7
20260505152924 57 0.0 0.0 0.00 0.00 0.00 10 1010.9
20260505151919 57 0.0 0.0 0.00 0.00 0.00 10 1010.6
20260505150919 60 0.0 0.0 0.00 0.00 0.00 77 1010.4
20260505124924 66 0.0 0.0 0.00 0.00 0.00 70 1010.7
20260505123919 70 0.0 0.0 0.00 0.00 0.00 60 1010.5
20260505122919 72 0.0 0.0 0.00 0.00 0.00 66 1010.1
20260505121919 65 0.0 0.0 0.00 0.00 0.00 70 1010.9
20260505120924 68 0.0 0.0 0.00 0.00 0.00 58 1010.6
20260505115919 73 0.0 0.0 0.00 0.00 0.00 54 1010.1
20260505114919 71 0.0 0.0 0.00 0.00 0.00 67 1010.4
20260505113919 69 0.0 0.0 0.00 0.00 0.00 56 1010.8
20260505112919 71 0.0 0.0 0.00 0.00 0.00 52 1010.6
20260505111919 74 0.0 0.0 0.00 0.00 0.00 47 1010.3
20260505110919 75 0.0 0.0 0.00 0.00 0.00 50 1010.4
20260505101924 65 0.0 0.0 0.00 0.00 0.00 95 1011.7
20260505100919 63 0.0 0.0 0.00 0.00 0.00 97 1011.9
20260505095919 64 0.0 0.0 0.00 0.00 0.00 94 1011.6
20260505094919 63 0.0 0.0 0.00 0.00 0.00 10 1011.8
20260505093919 63 0.0 0.0 0.00 0.00 0.00 10 1011.8
20260505092919 62 0.0 0.0 0.00 0.00 0.00 10 1011.9
20260505091919 59 0.0 0.0 0.00 0.00 0.00 10 1012.3
20260505090919 56 0.0 0.0 0.00 0.00 0.00 10 1012.6
20260505085919 56 0.0 0.0 0.00 0.00 0.00 10 1012.8
20260505084919 56 0.0 0.0 0.00 0.00 0.00 10 1013.0
20260505083919 57 0.0 0.0 0.00 0.00 0.00 10 1012.9
20260505082919 58 0.0 0.0 0.00 0.00 0.00 10 1012.7
20260505081919 57 0.0 0.0 0.00 0.00 0.00 10 1012.8
20260505080919 58 0.0 0.0 0.00 0.00 0.00 10 1012.6
20260505075919 59 0.0 0.0 0.00 0.00 0.00 10 1012.5
20260505074919 57 0.0 0.0 0.00 0.00 0.00 10 1012.7
20260505073919 57 0.0 0.0 0.00 0.00 0.00 10 1012.8
20260505072919 56 0.0 0.0 0.00 0.00 0.00 10 1012.9
20260505071919 55 0.0 0.0 0.00 0.00 0.00 10 1013.0
20260505070919 53 0.0 0.0 0.00 0.00 0.00 10 1013.3
20260505065919 53 0.0 0.0 0.00 0.00 0.00 10 1013.4
20260505064919 53 0.0 0.0 0.00 0.00 0.00 10 1013.3
20260505063919 51 0.0 0.0 0.00 0.00 0.00 10 1013.4
20260505062919 51 0.0 0.0 0.00 0.00 0.00 10 1013.4
20260505061919 51 0.0 0.0 0.00 0.00 0.00 10 1013.4
20260505060919 50 0.0 0.0 0.00 0.00 0.00 10 1013.4
20260505055919 50 0.0 0.0 0.00 0.00 0.00 10 1013.6
20260505054919 50 0.0 0.0 0.00 0.00 0.00 10 1013.6
20260505053919 51 0.0 0.0 0.00 0.00 0.00 10 1013.5
20260505052919 50 0.0 0.0 0.00 0.00 0.00 10 1013.4
20260505051924 49 0.0 0.0 0.00 0.00 0.00 10 1013.3
20260505050919 49 0.0 0.0 0.00 0.00 0.00 10 1013.4
20260505040919 49 0.0 0.0 0.00 0.00 0.00 10 1013.8
20260505035919 49 0.0 0.0 0.00 0.00 0.00 10 1013.6
20260505034919 49 0.0 0.0 0.00 0.00 0.00 10 1013.4
20260505033919 50 0.0 0.0 0.00 0.00 0.00 10 1013.3
20260505032919 50 0.0 0.0 0.00 0.00 0.00 10 1013.2
20260505031919 51 0.0 0.0 0.00 0.00 0.00 10 1013.3
20260505030919 50 0.0 0.0 0.00 0.00 0.00 10 1013.2
20260505025925 50 0.0 0.0 0.00 0.00 0.00 10 1013.4
20260505024919 51 0.0 0.0 0.00 0.00 0.00 10 1013.3